Regional Weather Roundup
Issued by NWS

Home | Current Version | Previous Version | Graphics & Text | Print | Product List | Glossary On
Versions: 1 2 3 4 5 6 7 8 9 10 11 12 13 14 15 16 17 18 19 20 21 22 23 24 25 26 27 28 29 30 31 32 33 34 35 36 37 38 39 40 41 42 43 44 45 46 47 48 49 50
000
ASUS43 KLMK 081310
RWRKY
KENTUCKY REGIONAL WEATHER ROUNDUP
NATIONAL WEATHER SERVICE LOUISVILLE KY
800 AM EST THU DEC 08 2016

NOTE "FAIR" INDICATES FEW OR NO CLOUDS BELOW 12,000 FEET
WITH NO SIGNIFICANT WEATHER AND/OR OBSTRUCTIONS TO VISIBILITY.

KYZ001>023-026-027-061>063-070>075-081400-
WESTERN AND SOUTH CENTRAL KENTUCKY

CITY           SKY/WX    TMP DP  RH WIND       PRES   REMARKS
PADUCAH        PTCLDY    27  15  61 NW10      30.43R WCI  17
HENDERSON      PTCLDY    27  14  59 W10       30.40R WCI  17
OWENSBORO      MOCLDY    27  20  75 NW8       30.39R WCI  19
HOPKINSVILLE   PTCLDY    30  19  63 NW8       30.37R WCI  22
BOWLING GREEN  PTCLDY    31  21  66 NW5       30.36R WCI  26
GLASGOW        PTCLDY    30  23  74 W6        30.33R WCI  24
$$

KYZ024-025-028>034-038-045-046-053-081400-
NORTH CENTRAL KENTUCKY

CITY           SKY/WX    TMP DP  RH WIND       PRES   REMARKS
LOUISVILLE/SDF PTCLDY    29  16  58 NW10      30.32R WCI  20
LOUISVILLE/LOU PTCLDY    29  17  61 W15       30.32R WCI  18
FORT KNOX      CLEAR     27  17  65 W13       30.30R WCI  16
$$

KYZ035>037-039>044-047>052-055>060-089>105-081400-
NORTHEAST KENTUCKY

CITY           SKY/WX    TMP DP  RH WIND       PRES   REMARKS
LEXINGTON      PTCLDY    29  19  66 W10       30.26R WCI  20
COVINGTON      PTCLDY    25  16  68 W15       30.24R WCI  13
FRANKFORT      CLEAR     29  17  61 W7        30.26R WCI  22
$$

KYZ054-064>069-076>088-106>120-081400-
SOUTHEAST KENTUCKY

CITY           SKY/WX    TMP DP  RH WIND       PRES   REMARKS
JACKSON        MOCLDY    30  21  69 SW6       30.21S WCI  24
LONDON         CLEAR     30  20  66 SW5       30.25S WCI  25
SOMERSET       PTCLDY    30  21  69 W3        30.30R
MIDDLESBORO    CLOUDY    33  23  67 CALM      30.26R
MONTICELLO     SUNNY     29  23  78 W9        30.31S WCI  20
$$





USA.gov is the U.S. government's official web portal to all federal, state and local government web resources and services.